Location: Gwatt
(46.7204°N, 7.6223°E)
Time: 16:15:34
(UTC+00:00)

Okean-O - Pass Details

Date: 18 September 2020
Orbit: 639 x 641 km, 98.2° (Epoch: 28 October)

Event Time Altitude Azimuth Distance (km) Brightness Sun altitude
Rises 18:05:43 0° 174° (S) 2,933 5.9 -6.1°
Reaches altitude 10° 18:07:56 10° 177° (S) 2,028 5.1 -6.5°
Maximum altitude 18:12:18 61° 258° (WSW) 728 3.3 -7.3°
Drops below altitude 10° 18:16:43 10° 340° (NNW) 2,045 5.7 -8.0°
Sets 18:18:58 0° 344° (NNW) 2,959 6.4 -8.4°
